Location: Arthez
(43.0833°N, 0.2500°W)
Time: 02:03:19
(UTC+00:00)

ARGOS - Pass Details

Date: 23 October 2021
Orbit: 820 x 835 km, 98.4° (Epoch: 29 November)

Event Time Altitude Azimuth Distance (km) Brightness Sun altitude
Rises 18:37:48 0° 171° (S) 3,353 6.2 -17.5°
Reaches altitude 10° 18:40:09 10° 174° (S) 2,426 5.5 -17.9°
Maximum altitude 18:45:31 70° 258° (WSW) 884 3.4 -18.9°
Drops below altitude 10° 18:50:57 10° 342° (NNW) 2,452 5.8 -19.9°
Sets 18:53:20 0° 345° (NNW) 3,391 6.6 -20.3°
